Flag for Canada Weather past 2 weeks in Labrador City, Newfoundland and Labrador, Canada

Now
79 °F

Scattered clouds.


Feels Like: 79 °F
Forecast: 53 / 78 °F
Wind: 5 mph from North

Location: Wabush Lake

Current Time: Aug 23, 2014 at 3:15:37 PM

Latest Report: Aug 23, 2014 at 2:00 PM


Visibility: 15 mi

Pressure: 30.16 "Hg

Humidity: 39%

Dew point: 52 °F

Location of Labrador CityLocation

Historic Weather in Labrador City — Graph

°F

Labrador City temperature yesterday

Maximum temperature yesterday: 73 °F (at 3:00 PM)
Minimum temperature yesterday: 43 °F (at 4:00 AM)
Average temperature yesterday: 58 °F

Past Weeks' High & Low Weather Summary

 TemperatureHumidityPressure
High82 °F (Aug 11, 5:00 PM)100% (Aug 9, 2:00 AM)30.34 "Hg (Aug 9, 2:00 AM)
Low43 °F (Aug 21, 4:00 AM)34% (Aug 11, 7:00 PM)29.73 "Hg (Aug 17, 5:00 PM)
Average61 °F75%30.06 "Hg
* Reported Aug 8 2:00 PM — Aug 23 2:00 PM, Labrador City, Weather by CustomWeather, © 2014

Note: Actual official high and low records may vary slightly from our data, if they occured in-between our weather recording intervals... More about our weather records

Advertising

Labrador City weather history for previous 24 hours

 ConditionsComfort  
Time TempWeatherWind HumidityBarometerVisibility
2:00 PM
Aug 23
79 °FScattered clouds.5 mph39%30.16 "Hg15 mi
1:00 PM79 °FScattered clouds.7 mph42%30.17 "Hg15 mi
12:00 PM77 °FPassing clouds.6 mph44%30.18 "Hg15 mi
11:00 AM73 °FScattered clouds.5 mph50%30.19 "Hg15 mi
10:00 AM68 °FPartly sunny.2 mph60%30.20 "Hg15 mi
9:00 AM64 °FScattered clouds.3 mph68%30.20 "Hg15 mi
8:00 AM61 °FPassing clouds.3 mph77%30.21 "Hg15 mi
7:00 AM54 °FPassing clouds.6 mph88%30.20 "Hg15 mi
6:00 AM54 °FPassing clouds.6 mph88%30.20 "Hg15 mi
5:00 AM54 °FPassing clouds.6 mph88%30.20 "Hg15 mi
4:00 AM52 °FClear.7 mph94%30.22 "Hg15 mi
3:00 AM50 °FClear.6 mph100%30.22 "Hg15 mi
2:00 AM52 °FClear.3 mph94%30.22 "Hg15 mi
1:00 AM54 °FClear.5 mph94%30.23 "Hg15 mi
12:00 AM52 °FClear.5 mph94%30.24 "Hg15 mi
11:00 PM
Aug 22
55 °FSunny.5 mph88%30.24 "Hg15 mi
10:00 PM55 °FSunny.No wind94%30.25 "Hg15 mi
9:00 PM64 °FSunny.5 mph68%30.25 "Hg15 mi
8:00 PM70 °FPassing clouds.3 mph53%30.24 "Hg15 mi
7:00 PM73 °FScattered clouds.2 mph47%30.24 "Hg15 mi
6:00 PM73 °FScattered clouds.6 mph44%30.24 "Hg15 mi
5:00 PM73 °FScattered clouds.12 mph44%30.25 "Hg15 mi
3:00 PM73 °FScattered clouds.8 mph47%30.28 "Hg15 mi
Weather by CustomWeather, © 2014

See weather overviewHow to use our weather pages